Winona, MN

1:12 PM CST on February 25, 2017 (GMT -0600)
Winona Municipal-Conrad

Weather History for KONA - January, 2013

Change the Weather History Date:

Sunday, January 27, 2013

  Actual Average Record
Temperature  
Mean Temperature 29 °F -  
Max Temperature 32 °F 27 °F 51 °F (2002)
Min Temperature 26 °F 6 °F -9 °F (2000)
Degree Days  
Heating Degree Days 36    
Moisture  
Dew Point 23 °F    
Average Humidity 77    
Maximum Humidity 100    
Minimum Humidity 47    
Precipitation  
Precipitation 0.25 in - - ()
Sea Level Pressure  
Sea Level Pressure 30.01 in    
Wind  
Wind Speed 6 mph (SE)    
Max Wind Speed 12 mph    
Max Gust Speed -    
Visibility 6 miles    
Events Snow    
Averages and records for this station are not official NWS values.
T = Trace of Precipitation, MM = Missing Value Source: NWS Daily Summary

Daily Weather History Graph

Daily Weather History Graph

Search for Another Location

Airport or City:

Trip Planner

Search our weather history database for the weather conditions in past years. The results will help you decide how hot, cold, wet, or windy it might be!

Date:

Astronomy

Jan. 27, 2013 Rise Set
Actual Time 7:29 AM CST 5:10 PM CST
Civil Twilight 6:58 AM CST 5:41 PM CST
Nautical Twilight 6:23 AM CST 6:16 PM CST
Astronomical Twilight 5:49 AM CST 6:50 PM CST
Moon 6:08 PM CST (1/27) 7:19 AM CST (1/27)
Length of Visible Light 10h 43m
Length of Day
9h 41m
Full, 100% of the Moon is Illuminated
Jan 27
Full
Feb 3
Last Quarter
Feb 10
New
Feb 17
First Quarter
Feb 25
Full

Hourly Weather History & Observations

Time (CST) Temp. Windchill Dew Point Humidity Pressure Visibility Wind Dir Wind Speed Gust Speed Precip Events Conditions
12:14 AM 26.6 °F 20.0 °F 10.4 °F 51% 30.21 in 10.0 mi SE 5.8 mph - N/A   Overcast
12:35 AM 28.4 °F 22.2 °F 12.2 °F 51% 30.21 in 10.0 mi SSE 5.8 mph - N/A   Overcast
12:54 AM 28.4 °F 21.2 °F 12.2 °F 51% 30.20 in 10.0 mi SSE 6.9 mph - N/A   Overcast
1:14 AM 28.4 °F 21.2 °F 12.2 °F 51% 30.19 in 10.0 mi SSE 6.9 mph - N/A   Overcast
1:35 AM 28.4 °F 22.2 °F 12.2 °F 51% 30.19 in 10.0 mi SSE 5.8 mph - N/A   Overcast
1:54 AM 28.4 °F 21.2 °F 12.2 °F 51% 30.19 in 10.0 mi SE 6.9 mph - N/A   Mostly Cloudy
2:14 AM 28.4 °F 23.3 °F 12.2 °F 51% 30.19 in 10.0 mi SE 4.6 mph - N/A   Mostly Cloudy
2:35 AM 28.4 °F 24.6 °F 12.2 °F 51% 30.19 in 10.0 mi SE 3.5 mph - N/A   Mostly Cloudy
2:54 AM 28.4 °F 24.6 °F 14.0 °F 55% 30.18 in 10.0 mi SSE 3.5 mph - N/A   Mostly Cloudy
3:14 AM 28.4 °F 23.3 °F 14.0 °F 55% 30.17 in 10.0 mi SSE 4.6 mph - N/A   Overcast
3:35 AM 28.4 °F 23.3 °F 14.0 °F 55% 30.17 in 10.0 mi SE 4.6 mph - N/A   Overcast
3:54 AM 28.4 °F 23.3 °F 14.0 °F 55% 30.15 in 10.0 mi SE 4.6 mph - N/A   Overcast
4:14 AM 28.4 °F 23.3 °F 14.0 °F 55% 30.15 in 10.0 mi SE 4.6 mph - N/A   Overcast
4:35 AM 28.4 °F 22.2 °F 14.0 °F 55% 30.14 in 10.0 mi SE 5.8 mph - N/A   Overcast
4:54 AM 28.4 °F 23.3 °F 14.0 °F 55% 30.13 in 10.0 mi SE 4.6 mph - N/A   Overcast
5:14 AM 28.4 °F 22.2 °F 14.0 °F 55% 30.13 in 10.0 mi SE 5.8 mph - N/A   Overcast
5:35 AM 28.4 °F 22.2 °F 14.0 °F 55% 30.13 in 10.0 mi SE 5.8 mph - N/A   Overcast
5:54 AM 28.4 °F 23.3 °F 14.0 °F 55% 30.13 in 10.0 mi SE 4.6 mph - N/A   Overcast
6:14 AM 28.4 °F 23.3 °F 14.0 °F 55% 30.13 in 10.0 mi SE 4.6 mph - N/A   Overcast
6:35 AM 28.4 °F 22.2 °F 14.0 °F 55% 30.12 in 10.0 mi SE 5.8 mph - N/A   Overcast
6:54 AM 28.4 °F 22.2 °F 14.0 °F 55% 30.12 in 10.0 mi SE 5.8 mph - N/A   Overcast
7:15 AM 28.4 °F 21.2 °F 14.0 °F 55% 30.12 in 10.0 mi SE 6.9 mph - N/A   Overcast
7:35 AM 28.4 °F 21.2 °F 14.0 °F 55% 30.11 in 10.0 mi SE 6.9 mph - N/A   Overcast
7:54 AM 28.4 °F 20.4 °F 14.0 °F 55% 30.11 in 10.0 mi ESE 8.1 mph - N/A   Overcast
8:15 AM 30.2 °F 22.6 °F 14.0 °F 51% 30.11 in 10.0 mi SE 8.1 mph - N/A   Overcast
8:35 AM 30.2 °F 24.3 °F 14.0 °F 51% 30.12 in 10.0 mi SSE 5.8 mph - N/A   Mostly Cloudy
8:54 AM 30.2 °F 24.3 °F 14.0 °F 51% 30.11 in 10.0 mi SE 5.8 mph - N/A   Scattered Clouds
9:15 AM 30.2 °F 23.4 °F 12.2 °F 47% 30.10 in 10.0 mi SSE 6.9 mph - N/A   Scattered Clouds
9:35 AM 32.0 °F 24.2 °F 15.8 °F 51% 30.09 in 10.0 mi SE 9.2 mph - N/A   Mostly Cloudy
9:54 AM 30.2 °F 21.9 °F 19.4 °F 64% 30.08 in 7.0 mi SE 9.2 mph - N/A   Overcast
10:15 AM 30.2 °F 21.3 °F 23.0 °F 75% 30.08 in 10.0 mi SE 10.4 mph - N/A Snow Light Snow
10:35 AM 30.2 °F 21.9 °F 23.0 °F 75% 30.06 in 7.0 mi SE 9.2 mph - 0.01 in   Overcast
10:54 AM 30.2 °F 21.3 °F 24.8 °F 80% 30.05 in 10.0 mi SE 10.4 mph - 0.01 in   Overcast
11:15 AM 30.2 °F 22.6 °F 24.8 °F 80% 30.05 in 10.0 mi SE 8.1 mph - N/A   Overcast
11:35 AM 30.2 °F 21.9 °F 26.6 °F 86% 30.04 in 7.0 mi SE 9.2 mph - 0.01 in   Overcast
11:54 AM 30.2 °F 20.8 °F 26.6 °F 86% 30.02 in 4.0 mi ESE 11.5 mph - 0.02 in   Overcast
12:15 PM 30.2 °F 21.3 °F 26.6 °F 86% 30.01 in 3.0 mi SE 10.4 mph - 0.02 in   Overcast
12:35 PM 30.2 °F 21.9 °F 28.4 °F 93% 30.00 in 3.0 mi ESE 9.2 mph - 0.06 in   Overcast
12:54 PM 30.2 °F 21.3 °F 28.4 °F 93% 29.98 in 2.0 mi SE 10.4 mph - 0.10 in Snow Light Snow
1:15 PM 30.2 °F 23.4 °F 28.4 °F 93% 29.97 in 2.5 mi SE 6.9 mph - 0.02 in   Overcast
1:35 PM 30.2 °F 22.6 °F 28.4 °F 93% 29.97 in 2.5 mi ESE 8.1 mph - 0.03 in Snow Light Snow
1:54 PM 30.2 °F 22.6 °F 28.4 °F 93% 29.95 in 2.0 mi ESE 8.1 mph - 0.04 in Snow Light Snow
2:15 PM 30.2 °F 22.6 °F 28.4 °F 93% 29.94 in 3.0 mi SE 8.1 mph - 0.02 in   Overcast
2:35 PM 30.2 °F 22.6 °F 28.4 °F 93% 29.93 in 3.0 mi SE 8.1 mph - 0.04 in   Overcast
2:54 PM 30.2 °F 21.9 °F 28.4 °F 93% 29.92 in 2.5 mi ESE 9.2 mph - 0.06 in   Overcast
3:15 PM 30.2 °F 23.4 °F 28.4 °F 93% 29.92 in 2.5 mi SE 6.9 mph - 0.01 in   Overcast
3:35 PM 30.2 °F 22.6 °F 28.4 °F 93% 29.91 in 2.0 mi SE 8.1 mph - 0.02 in   Overcast
3:54 PM 32.0 °F 24.8 °F 32.0 °F 100% 29.90 in 2.0 mi SE 8.1 mph - 0.02 in   Overcast
4:15 PM 32.0 °F 25.6 °F 32.0 °F 100% 29.90 in 2.0 mi SE 6.9 mph - N/A   Overcast
4:35 PM 32.0 °F 25.6 °F 32.0 °F 100% 29.89 in 2.5 mi SE 6.9 mph - N/A   Overcast
4:54 PM 32.0 °F 25.6 °F 30.2 °F 93% 29.89 in 5.0 mi ESE 6.9 mph - N/A   Overcast
5:15 PM 32.0 °F 26.4 °F 32.0 °F 100% 29.88 in 4.0 mi ESE 5.8 mph - N/A   Overcast
5:35 PM 32.0 °F 26.4 °F 30.2 °F 93% 29.88 in 3.0 mi ESE 5.8 mph - N/A   Overcast
5:55 PM 32.0 °F 26.4 °F 32.0 °F 100% 29.87 in 3.0 mi SE 5.8 mph - N/A   Overcast
6:14 PM 32.0 °F 26.4 °F 30.2 °F 93% 29.87 in 3.0 mi SE 5.8 mph - N/A   Overcast
6:35 PM 32.0 °F 27.5 °F 32.0 °F 100% 29.86 in 3.0 mi SE 4.6 mph - N/A   Overcast
6:55 PM 32.0 °F 25.6 °F 32.0 °F 100% 29.86 in 3.0 mi SE 6.9 mph - N/A   Overcast
7:14 PM 32.0 °F 26.4 °F 32.0 °F 100% 29.86 in 4.0 mi SE 5.8 mph - N/A   Overcast
7:35 PM 32.0 °F 26.4 °F 30.2 °F 93% 29.85 in 4.0 mi ESE 5.8 mph - N/A   Overcast
7:55 PM 30.2 °F 25.4 °F 30.2 °F 100% 29.84 in 4.0 mi SE 4.6 mph - N/A   Overcast
8:15 PM 30.2 °F 25.4 °F 30.2 °F 100% 29.85 in 4.0 mi SE 4.6 mph - N/A   Overcast
8:34 PM 30.2 °F 26.7 °F 30.2 °F 100% 29.84 in 5.0 mi ESE 3.5 mph - N/A   Overcast
8:55 PM 30.2 °F 26.7 °F 30.2 °F 100% 29.83 in 5.0 mi ESE 3.5 mph - N/A   Overcast
9:14 PM 32.0 °F - 30.2 °F 93% 29.83 in 3.0 mi Calm Calm - N/A   Overcast
9:35 PM 32.0 °F - 32.0 °F 100% 29.82 in 2.0 mi Calm Calm - N/A   Overcast
9:54 PM 32.0 °F - 32.0 °F 100% 29.82 in 2.0 mi Calm Calm - N/A   Overcast
10:14 PM 32.0 °F - 32.0 °F 100% 29.82 in 2.0 mi Calm Calm - N/A   Overcast
10:35 PM 32.0 °F - 32.0 °F 100% 29.81 in 2.0 mi Calm Calm - N/A   Overcast
10:55 PM 32.0 °F 28.7 °F 32.0 °F 100% 29.81 in 2.0 mi SE 3.5 mph - N/A   Overcast
11:14 PM 32.0 °F - 32.0 °F 100% 29.81 in 2.0 mi Calm Calm - N/A   Overcast
11:35 PM 32.0 °F - 32.0 °F 100% 29.81 in 2.0 mi Calm Calm - N/A   Overcast
11:55 PM 32.0 °F - 32.0 °F 100% 29.81 in 1.8 mi Calm Calm - N/A   Overcast